Powrót do katalogu

FENGYUN 1C DEB

AktywnyPO
NORAD 30641·DEBRIS·🇨🇳 China

Wystrzelony May 10, 1999 z Taiyuan Satellite Launch Center

Loading…

Następne Przeloty (najbliższe 24 godziny)

TLE

ŚwieżeSource: Space-Track

Epoka: Sep 14, 2026, 09:48 UTC

1 30641U 99025ANY 26257.40851135  .00004345  00000-0  48552-3 0  9991
2 30641  98.9713 228.7057 0128791 338.1993 174.7025 14.81731653 46115

Śledź FENGYUN 1C DEB w czasie rzeczywistym z AllMySat

Download on the App Store